[[{"header":{"parameterUnit":"m.s-1","parameterCategory":1,"la1":30.2991,"la2":30.254,"lo1":-89.0895,"lo2":-89.0444,"dy":0.0017,"dx":0.0017,"nx":28,"ny":28,"refTime":"2024-05-19T09:00:00:Z","depth":0,"parameterNumber":2,"parameterNumberName":"U-component_of_WINDS"},"data":[0,0,0,0,0,0,0,0,0,0,0,0,0,0,0,0,0,0,0,0,0,0,0,0,0,0,0,0,0,0,0,0,0,0,0,0,0,0,0,0,0,0,0,0,0,0,0,0,0,0,0,0,0,0,0,0,0,0,2.428,2.4281,0,2.4406,2.4407,2.4409,2.4389,2.4387,2.4385,2.4383,2.4514,2.4519,2.4524,0,0,0,0,0,0,0,0,0,0,0,0,0,2.4024,2.4029,2.428,2.4281,2.4283,2.4405,2.4407,2.4409,2.4389,2.4387,2.4384,2.4382,2.4512,2.4518,2.4525,0,0,0,0,0,0,0,0,0,0,0,0,0,2.4141,2.403,2.428,2.4288,2.429,2.4405,2.4407,2.4409,2.439,2.4387,2.4384,2.4381,2.451,2.4518,2.4526,2.4641,0,0,2.4551,2.4554,0,0,0,0,0,0,0,0,2.4134,2.415,2.4285,2.4288,2.429,2.4378,2.4365,2.4487,2.4391,2.4352,2.4383,2.4379,2.4471,2.4482,2.4513,2.4647,2.4653,2.4552,2.4557,2.456,2.4562,0,0,0,0,0,0,0,2.4126,2.4145,2.433,2.4287,2.429,2.4286,2.4299,2.4388,2.4428,2.4355,2.4354,2.4369,2.4472,2.4505,2.4516,2.4655,2.4551,2.4559,2.4564,2.4567,2.4887,2.489,0,0,0,0,0,0,2.4115,2.4138,2.4326,2.4333,2.4203,2.4293,2.4308,2.4353,2.4427,2.4435,2.4372,2.4368,2.4493,2.4507,2.4521,2.4658,2.456,2.4568,2.4572,2.4883,2.4888,2.4892,0,0,0,0,0,0,2.411,2.4132,2.4321,2.4236,2.4259,2.4301,2.4352,2.4358,2.4391,2.444,2.4447,2.4398,2.4491,2.4509,2.461,2.4662,2.4571,2.4579,2.4879,2.4885,2.489,2.4935,0,0,0,0,0,0,2.4103,2.4131,2.4175,2.4237,2.4264,2.4408,2.4356,2.4362,2.4405,2.4401,2.4466,2.4474,2.449,2.4598,2.4619,2.4672,2.4585,2.4875,2.4882,2.4888,2.4929,2.4941,2.4952,0,0,0,0,0,2.4094,2.4183,2.4177,2.42,2.432,2.4411,2.4427,2.4442,2.4409,2.4453,2.4485,2.4472,2.4654,2.4609,2.4632,2.4688,2.4871,2.488,2.4887,2.4924,2.4939,2.4952,0,0,0,0,0,0,2.4127,2.4192,2.4185,2.4298,2.4349,2.4408,2.4464,2.4458,2.452,2.4514,2.4531,2.4546,2.4648,2.4679,2.4627,2.4803,2.4758,2.4771,2.4778,2.4793,2.4804,2.4793,2.4592,0,0,0,0,0,2.4148,2.4216,2.4269,2.4363,2.4389,2.4422,2.4463,2.447,2.4524,2.4546,2.4585,2.4638,2.4707,2.4752,2.4819,2.4934,2.4947,2.4985,2.4996,2.5005,2.5015,2.5077,2.5093,2.4918,2.4918,2.4918,0,0,2.419,2.4234,2.4277,2.4371,2.4411,2.4482,2.4441,2.4518,2.457,2.4558,2.4655,2.4686,2.4746,2.4855,2.4904,2.4883,2.5067,2.5015,2.5022,2.5028,2.5087,2.5103,2.5118,2.4923,2.4922,2.4922,0,0,2.4304,2.4345,2.4426,2.4467,2.4529,2.455,2.457,2.463,2.4649,2.4747,2.4739,2.4802,2.4921,2.4963,2.5001,2.513,2.512,2.5151,2.521,2.5269,2.5283,2.5295,2.5339,2.5354,2.5162,2.5162,2.5162,0,2.4349,2.4454,2.4469,2.4546,2.4587,2.4579,2.4661,2.4701,2.4782,2.481,2.4786,2.4933,2.4974,2.5091,2.5122,2.5154,2.5175,2.5142,2.528,2.5292,2.5304,2.5345,2.5362,2.5165,2.5165,2.5164,2.5164,0,2.4506,2.4579,2.4637,2.4713,2.4762,2.4841,2.4868,2.4915,2.4918,2.4942,2.5041,2.5089,2.5164,2.5193,2.5198,2.5311,2.5295,2.5276,2.5231,2.5323,2.5362,2.5379,2.517,2.5168,2.5168,2.5167,0,0,2.4642,2.4725,2.4746,2.478,2.4847,2.4904,2.4983,2.5055,2.5094,2.515,2.5215,2.5316,2.5297,2.534,2.5349,2.5402,2.5498,2.5375,2.5377,2.5394,2.5622,2.5635,2.5653,2.5493,2.5496,2.5498,2.5616,0,2.4759,2.4897,2.4913,2.5036,2.5102,2.5096,2.5164,2.5213,2.5238,2.5298,2.5326,2.5395,2.5367,2.5392,2.5444,2.5475,2.5543,2.5467,2.5552,2.5555,2.5534,2.5674,2.5688,2.5797,2.5632,2.5635,2.5637,0,2.4914,2.4973,2.5102,2.5158,2.5187,2.5248,2.5314,2.5373,2.5428,2.5442,2.5489,2.5492,2.5572,2.5526,2.5637,2.5585,2.5621,2.5642,2.5646,2.5653,2.5599,2.5681,2.5832,2.5847,2.5662,2.566,2.5658,0,2.4997,2.5109,2.52,2.523,2.5298,2.5341,2.5372,2.5424,2.5465,2.5524,2.5551,2.562,2.5656,2.5709,2.573,2.5695,2.5839,2.5795,2.5852,2.5851,2.588,2.5877,2.6036,2.5909,2.5908,2.5908,2.5908,0,2.5125,2.5203,2.5238,2.5293,2.5381,2.5398,2.5485,2.5514,2.556,2.5621,2.5621,2.5678,2.5704,2.5765,2.5782,2.587,2.5888,2.5901,2.5904,2.5899,2.5897,2.5921,2.5913,2.5912,2.5911,2.5911,2.591,0,2.5231,2.5257,2.5355,2.5412,2.5428,2.549,2.5539,2.5593,2.5617,2.5694,2.5713,2.5751,2.5823,2.585,2.5938,2.595,2.6051,2.6049,2.6031,2.6031,2.6085,2.6079,2.6262,2.6286,2.6146,2.6147,2.6148,0,2.5309,2.5369,2.5432,2.5472,2.5504,2.5569,2.5612,2.5632,2.5676,2.5742,2.5788,2.5859,2.5917,2.6033,2.6068,2.6136,2.6134,2.6194,2.6144,2.6137,2.6131,2.6126,2.6131,2.6202,2.6203,2.6205,2.6206,0,2.5443,2.5453,2.5514,2.5579,2.5629,2.5682,2.5733,2.5766,2.5794,2.5844,2.5917,2.5962,2.6051,2.6121,2.619,2.6222,2.6218,2.6221,2.6237,2.6231,2.6217,2.6223,2.6053,2.6216,2.6215,2.6214,2.6214,2.6213,2.5536,2.5588,2.5639,2.5707,2.5747,2.5795,2.5847,2.5877,2.5938,2.6011,2.602,2.6098,2.6151,2.6243,2.6278,2.6339,2.6323,2.6347,2.6353,2.6358,2.636,2.621,2.6353,2.6352,2.6352,2.6352,2.6352,0,2.5668,2.5701,2.5762,2.5833,2.5886,2.5877,2.5933,2.5978,2.6046,2.6095,2.6152,2.6235,2.6304,2.6345,2.6413,2.6454,2.6454,2.6471,2.6467,2.6474,2.6372,2.635,2.647,2.647,2.647,2.647,2.647,2.647,2.5742,2.5829,2.5845,2.5951,2.5984,2.606,2.6092,2.6135,2.6174,2.6267,2.6323,2.6349,2.6395,2.6467,2.6529,2.6539,2.6563,2.6582,2.659,2.6494,2.6481,2.647,2.6448,2.6587,2.6588,2.6686,2.6687,2.6688]},{"header":{"parameterUnit":"m.s-1","parameterCategory":1,"la1":30.2991,"la2":30.254,"lo1":-89.0895,"lo2":-89.0444,"dy":0.0017,"dx":0.0017,"nx":28,"ny":28,"refTime":"2024-05-19T09:00:00:Z","depth":0,"parameterNumber":3,"parameterNumberName":"V-component_of_WINDS"},"data":[0,0,0,0,0,0,0,0,0,0,0,0,0,0,0,0,0,0,0,0,0,0,0,0,0,0,0,0,0,0,0,0,0,0,0,0,0,0,0,0,0,0,0,0,0,0,0,0,0,0,0,0,0,0,0,0,0,0,2.2665,2.2664,0,2.261,2.2609,2.2609,2.2489,2.2487,2.2484,2.2482,2.2427,2.2427,2.2428,0,0,0,0,0,0,0,0,0,0,0,0,0,2.2666,2.2667,2.2665,2.2664,2.2664,2.261,2.2609,2.2609,2.249,2.2487,2.2484,2.2481,2.2426,2.2427,2.2428,0,0,0,0,0,0,0,0,0,0,0,0,0,2.2644,2.2667,2.2665,2.2598,2.2591,2.261,2.2609,2.2608,2.249,2.2487,2.2483,2.248,2.2426,2.2427,2.2428,2.2509,0,0,2.2432,2.2433,0,0,0,0,0,0,0,0,2.2646,2.2644,2.2608,2.2603,2.2595,2.2553,2.2589,2.2575,2.2491,2.2529,2.2482,2.2478,2.2472,2.2469,2.2467,2.2506,2.2504,2.2432,2.2433,2.2433,2.2434,0,0,0,0,0,0,0,2.2647,2.2646,2.2643,2.2608,2.26,2.257,2.2563,2.2586,2.2521,2.2525,2.2516,2.2511,2.2467,2.2466,2.2464,2.2503,2.2432,2.2433,2.2434,2.2434,2.2603,2.2606,0,0,0,0,0,0,2.2659,2.2648,2.2645,2.2642,2.2612,2.2573,2.2565,2.257,2.2521,2.251,2.2515,2.2506,2.2465,2.2463,2.2462,2.255,2.2433,2.2434,2.2435,2.2599,2.2603,2.2607,0,0,0,0,0,0,2.2659,2.266,2.2647,2.2642,2.2639,2.2577,2.2584,2.2571,2.2569,2.2513,2.2501,2.2525,2.2463,2.246,2.2497,2.2547,2.2435,2.2436,2.2594,2.26,2.2605,2.273,0,0,0,0,0,0,2.266,2.266,2.2691,2.2644,2.2639,2.2684,2.2587,2.2572,2.2571,2.256,2.2519,2.2509,2.2459,2.2496,2.2498,2.2547,2.2437,2.259,2.2597,2.2604,2.2721,2.2739,2.2755,0,0,0,0,0,2.266,2.2729,2.2693,2.2693,2.2676,2.2687,2.2684,2.2626,2.2576,2.2605,2.2569,2.251,2.2542,2.2501,2.2503,2.2552,2.2586,2.2595,2.2603,2.2714,2.2736,2.2754,0,0,0,0,0,0,2.2784,2.2721,2.2681,2.2736,2.2718,2.2667,2.2702,2.2652,2.2647,2.2637,2.2564,2.2556,2.2602,2.2581,2.2537,2.2625,2.2554,2.2564,2.2638,2.2658,2.2675,2.2678,2.2438,0,0,0,0,0,2.2817,2.2832,2.2777,2.2831,2.2823,2.2765,2.2768,2.2724,2.2702,2.2694,2.266,2.2641,2.2646,2.2651,2.2653,2.2718,2.2706,2.2752,2.2769,2.2783,2.2791,2.2822,2.2841,2.2635,2.2635,2.2635,0,0,2.2887,2.2855,2.2868,2.2855,2.2835,2.2851,2.2759,2.2781,2.2792,2.2697,2.2729,2.2704,2.2678,2.2728,2.2749,2.2712,2.2846,2.2794,2.2805,2.2806,2.2832,2.2852,2.2869,2.2641,2.264,2.2639,0,0,2.3021,2.2999,2.3041,2.3023,2.2994,2.2954,2.2965,2.2921,2.29,2.2931,2.286,2.2872,2.2883,2.2867,2.286,2.2987,2.2932,2.2989,2.3077,2.3107,2.3123,2.3137,2.318,2.3197,2.2998,2.2999,2.2999,0,2.3112,2.3133,2.3069,2.3094,2.3089,2.3004,2.3045,2.3031,2.3005,2.3003,2.2962,2.2972,2.2949,2.2993,2.3024,2.3022,2.303,2.2993,2.3126,2.3139,2.3151,2.3192,2.3208,2.3006,2.3005,2.3004,2.3003,0,2.3244,2.326,2.3297,2.3272,2.3272,2.3306,2.3246,2.3253,2.3209,2.3174,2.3206,2.3174,2.3167,2.3175,2.3133,2.3213,2.319,2.3139,2.3066,2.3179,2.3216,2.3231,2.3016,2.3013,2.3011,2.3009,0,0,2.3455,2.3393,2.3408,2.3395,2.3356,2.3367,2.3396,2.3388,2.3395,2.338,2.3401,2.3412,2.3363,2.3355,2.3311,2.3338,2.3437,2.3282,2.328,2.331,2.3521,2.3559,2.3578,2.3401,2.3404,2.3406,2.3522,0,2.3579,2.3624,2.3567,2.3624,2.3637,2.3556,2.358,2.3559,2.3527,2.3532,2.3496,2.3504,2.344,2.3435,2.3458,2.3421,2.3478,2.3411,2.3419,2.342,2.3427,2.3597,2.3638,2.3749,2.3537,2.3539,2.3541,0,2.373,2.3721,2.3779,2.3735,2.3738,2.3762,2.3749,2.3756,2.373,2.3704,2.3695,2.3641,2.3665,2.3595,2.3626,2.3582,2.3582,2.3564,2.3566,2.3564,2.3487,2.3598,2.3784,2.38,2.3563,2.3561,2.356,0,2.3875,2.3878,2.3912,2.3904,2.3854,2.3872,2.3852,2.3822,2.382,2.381,2.3807,2.38,2.3796,2.3791,2.3736,2.369,2.3773,2.3699,2.3751,2.3753,2.3772,2.3771,2.3959,2.3775,2.3775,2.3774,2.3774,0,2.4019,2.4058,2.3976,2.3998,2.4038,2.3972,2.4013,2.3985,2.3959,2.3972,2.3902,2.3917,2.3844,2.385,2.3807,2.3839,2.3838,2.3817,2.3805,2.3822,2.3825,2.382,2.381,2.3779,2.3778,2.3777,2.3776,0,2.4188,2.4135,2.4167,2.4117,2.4105,2.4137,2.4093,2.411,2.4073,2.4091,2.4091,2.4033,2.4036,2.3981,2.3975,2.3945,2.3995,2.397,2.4004,2.3996,2.405,2.4045,2.424,2.4262,2.4066,2.4068,2.407,0,2.4282,2.431,2.4262,2.4266,2.4249,2.4257,2.4254,2.4189,2.419,2.4161,2.4182,2.4179,2.4174,2.4183,2.414,2.4133,2.4107,2.4175,2.4105,2.4121,2.4105,2.4104,2.4105,2.419,2.4192,2.4194,2.4196,0,2.4455,2.4427,2.4426,2.4416,2.4415,2.4404,2.4389,2.4396,2.4325,2.4329,2.4331,2.4327,2.4319,2.4317,2.4303,2.4281,2.4227,2.4218,2.423,2.4247,2.4265,2.4254,2.4042,2.4214,2.4212,2.4211,2.421,2.4209,2.4587,2.4607,2.4576,2.4577,2.4558,2.4545,2.4558,2.4522,2.4523,2.4511,2.4473,2.4481,2.4453,2.4427,2.4411,2.4416,2.4382,2.4399,2.4403,2.4408,2.4417,2.4265,2.4413,2.4412,2.4412,2.4411,2.4411,0,2.4754,2.473,2.4732,2.4711,2.4712,2.4661,2.464,2.4644,2.4652,2.463,2.4626,2.4628,2.4625,2.4581,2.4573,2.4586,2.456,2.4586,2.4583,2.4579,2.4449,2.4439,2.4606,2.4606,2.4606,2.4606,2.4606,2.4606,2.4841,2.4871,2.484,2.4859,2.4834,2.4842,2.4835,2.4822,2.4803,2.4808,2.4806,2.4777,2.4745,2.4734,2.4729,2.4716,2.4716,2.4749,2.4728,2.4607,2.4588,2.457,2.456,2.475,2.475,2.4856,2.4857,2.4858]}]]